Location: Miles
(41.4492°N, 81.6087°W)
Time: 19:28:02
(UTC+00:00)

Transit 2A - Pass Details

Date: 19 September 2024
Orbit: 590 x 960 km, 66.7° (Epoch: 05 October)

Event Time Altitude Azimuth Distance (km) Brightness Sun altitude
Rises 05:52:03 0° 338° (NNW) 3,647 10.0 -46.7°
Reaches altitude 10° 05:55:54 10° 360° (N) 2,676 9.3 -46.5°
Enters shadow 05:58:40 15° 26° (NNE) 2,297 8.9 -46.4°
Maximum altitude 05:59:28 15° 35° (NE) 2,267 - -46.4°
Drops below altitude 10° 06:02:55 10° 70° (ENE) 2,583 - -46.2°
Sets 06:06:30 0° 92° (E) 3,452 - -46.0°
